[[{"header":{"parameterUnit":"m.s-1","parameterCategory":1,"la1":30.2991,"la2":30.254,"lo1":-89.0895,"lo2":-89.0444,"dy":0.0017,"dx":0.0017,"nx":28,"ny":28,"refTime":"2025-08-05T03:00:00:Z","depth":0,"parameterNumber":2,"parameterNumberName":"U-component_of_WINDS"},"data":[0,0,0,0,0,0,0,0,0,0,0,0,0,0,0,0,0,0,0,0,0,0,0,0,0,0,0,0,0,0,0,0,0,0,0,0,0,0,0,0,0,0,0,0,0,0,0,0,0,0,0,0,0,0,0,0,0,0,-2.1042,-2.1042,0,-2.1049,-2.1049,-2.1049,-2.0974,-2.0972,-2.097,-2.0968,-2.0975,-2.0977,-2.098,0,0,0,0,0,0,0,0,0,0,0,0,0,-2.0961,-2.0963,-2.1042,-2.1042,-2.1042,-2.1049,-2.1049,-2.1049,-2.0974,-2.0972,-2.0969,-2.0967,-2.0975,-2.0977,-2.098,0,0,0,0,0,0,0,0,0,0,0,0,0,-2.0985,-2.0964,-2.1042,-2.1005,-2.1002,-2.1049,-2.1049,-2.1049,-2.0975,-2.0972,-2.0968,-2.0965,-2.0974,-2.0977,-2.098,-2.1063,0,0,-2.099,-2.0991,0,0,0,0,0,0,0,0,-2.0984,-2.0988,-2.101,-2.1008,-2.1004,-2.1007,-2.1024,-2.1054,-2.0975,-2.0985,-2.0968,-2.0964,-2.0988,-2.099,-2.0999,-2.1063,-2.1063,-2.099,-2.0992,-2.0994,-2.0994,0,0,0,0,0,0,0,-2.0983,-2.0988,-2.1045,-2.1011,-2.1007,-2.0988,-2.0988,-2.1029,-2.1004,-2.0984,-2.0978,-2.098,-2.0986,-2.0996,-2.0998,-2.1063,-2.099,-2.0993,-2.0995,-2.0996,-2.1194,-2.1198,0,0,0,0,0,0,-2.0986,-2.0987,-2.1044,-2.1045,-2.0986,-2.0992,-2.0992,-2.1009,-2.1004,-2.1,-2.0983,-2.0977,-2.0992,-2.0995,-2.0998,-2.1093,-2.0993,-2.0997,-2.0998,-2.1191,-2.1195,-2.1199,0,0,0,0,0,0,-2.0984,-2.0992,-2.1044,-2.1014,-2.1019,-2.0997,-2.1017,-2.1011,-2.1021,-2.1003,-2.0998,-2.0997,-2.0989,-2.0994,-2.1047,-2.1092,-2.0998,-2.1001,-2.1187,-2.1192,-2.1197,-2.1284,0,0,0,0,0,0,-2.0982,-2.0992,-2.1023,-2.1016,-2.1021,-2.1093,-2.102,-2.1014,-2.1026,-2.1018,-2.1015,-2.1011,-2.0987,-2.1042,-2.105,-2.1095,-2.1003,-2.1183,-2.1189,-2.1195,-2.1277,-2.1292,-2.1304,0,0,0,0,0,-2.098,-2.1047,-2.1025,-2.1032,-2.106,-2.1096,-2.1099,-2.107,-2.103,-2.1061,-2.105,-2.1011,-2.1087,-2.1048,-2.1056,-2.1103,-2.118,-2.1188,-2.1195,-2.1271,-2.1289,-2.1304,0,0,0,0,0,0,-2.1061,-2.1046,-2.1021,-2.1088,-2.1094,-2.1083,-2.1121,-2.109,-2.1106,-2.1098,-2.1061,-2.1061,-2.112,-2.1117,-2.1075,-2.1182,-2.1126,-2.1136,-2.1182,-2.1198,-2.1211,-2.121,-2.1006,0,0,0,0,0,-2.1087,-2.1117,-2.1102,-2.1163,-2.1167,-2.1144,-2.1158,-2.1135,-2.114,-2.1142,-2.1134,-2.114,-2.1164,-2.1181,-2.1203,-2.1277,-2.1274,-2.1313,-2.1326,-2.1338,-2.1346,-2.1383,-2.14,-2.1223,-2.1223,-2.1223,0,0,-2.114,-2.1135,-2.1157,-2.1179,-2.1181,-2.1212,-2.1146,-2.1183,-2.1206,-2.1147,-2.1196,-2.1191,-2.1195,-2.1259,-2.1286,-2.1258,-2.1394,-2.1347,-2.1356,-2.1358,-2.1392,-2.1409,-2.1424,-2.1228,-2.1227,-2.1227,0,0,-2.1253,-2.1253,-2.1303,-2.1306,-2.1309,-2.1293,-2.1306,-2.13,-2.1294,-2.1343,-2.1299,-2.1326,-2.137,-2.1374,-2.1382,-2.1497,-2.1461,-2.1505,-2.1574,-2.1611,-2.1625,-2.1637,-2.1676,-2.1691,-2.1513,-2.1514,-2.1514,0,-2.1318,-2.1364,-2.1333,-2.1372,-2.1383,-2.1331,-2.1381,-2.1386,-2.1396,-2.1405,-2.1373,-2.1426,-2.1425,-2.1488,-2.1516,-2.1525,-2.1537,-2.1504,-2.1626,-2.1637,-2.1648,-2.1685,-2.17,-2.1519,-2.1518,-2.1518,-2.1517,0,-2.1444,-2.1477,-2.1517,-2.1528,-2.1543,-2.1588,-2.1563,-2.1582,-2.1558,-2.1546,-2.1596,-2.1593,-2.1613,-2.1626,-2.1604,-2.1686,-2.1668,-2.1632,-2.1575,-2.1671,-2.1705,-2.1719,-2.1526,-2.1524,-2.1523,-2.1521,0,0,-2.1607,-2.16,-2.1615,-2.1619,-2.1619,-2.1644,-2.1686,-2.1705,-2.1722,-2.1731,-2.1765,-2.1803,-2.1769,-2.1778,-2.1755,-2.1788,-2.1877,-2.1747,-2.1747,-2.177,-2.1967,-2.1993,-2.201,-2.1855,-2.1858,-2.186,-2.1966,0,-2.1716,-2.1787,-2.1759,-2.1832,-2.1862,-2.1813,-2.185,-2.1854,-2.1844,-2.1867,-2.1855,-2.1882,-2.1836,-2.1841,-2.1872,-2.186,-2.1916,-2.1852,-2.1885,-2.1886,-2.1883,-2.2028,-2.2055,-2.2155,-2.1979,-2.1981,-2.1983,0,-2.1851,-2.1866,-2.1942,-2.1936,-2.1947,-2.198,-2.1995,-2.2018,-2.2022,-2.2012,-2.2022,-2.1992,-2.2033,-2.1977,-2.2032,-2.1989,-2.2001,-2.1998,-2.2001,-2.2001,-2.1939,-2.203,-2.2187,-2.2201,-2.2004,-2.2002,-2.2001,0,-2.196,-2.1999,-2.2049,-2.2054,-2.2049,-2.2073,-2.2072,-2.2072,-2.2086,-2.2099,-2.2107,-2.2125,-2.2135,-2.215,-2.2125,-2.2087,-2.2183,-2.2126,-2.2175,-2.2176,-2.2195,-2.2194,-2.2354,-2.2207,-2.2207,-2.2206,-2.2206,0,-2.2083,-2.2131,-2.2097,-2.2128,-2.218,-2.2148,-2.2201,-2.2195,-2.2195,-2.2223,-2.2184,-2.2211,-2.2178,-2.2202,-2.2184,-2.2231,-2.2236,-2.2229,-2.2223,-2.2231,-2.2232,-2.2237,-2.2228,-2.221,-2.221,-2.2209,-2.2208,0,-2.2212,-2.2192,-2.2243,-2.2234,-2.2233,-2.2272,-2.2264,-2.2292,-2.2279,-2.2315,-2.2322,-2.2301,-2.2328,-2.2305,-2.2331,-2.2318,-2.2381,-2.2366,-2.2379,-2.2374,-2.2424,-2.2419,-2.2591,-2.2611,-2.2453,-2.2455,-2.2456,0,-2.2291,-2.2327,-2.2322,-2.2337,-2.2339,-2.2365,-2.2378,-2.2349,-2.2364,-2.2371,-2.2398,-2.2421,-2.2437,-2.2481,-2.2469,-2.2488,-2.2472,-2.2531,-2.2474,-2.2481,-2.247,-2.2468,-2.247,-2.2542,-2.2544,-2.2545,-2.2547,0,-2.2432,-2.242,-2.244,-2.2457,-2.2474,-2.2486,-2.2495,-2.251,-2.248,-2.2499,-2.2525,-2.2538,-2.2564,-2.2587,-2.2602,-2.2601,-2.2569,-2.2565,-2.2577,-2.2584,-2.259,-2.2585,-2.2408,-2.2561,-2.2559,-2.2558,-2.2557,-2.2557,-2.2537,-2.2566,-2.2566,-2.259,-2.2594,-2.2603,-2.2628,-2.2618,-2.264,-2.2658,-2.264,-2.2671,-2.2673,-2.269,-2.2693,-2.2717,-2.2692,-2.271,-2.2714,-2.2718,-2.2725,-2.2588,-2.272,-2.272,-2.2719,-2.2719,-2.2719,0,-2.2674,-2.2672,-2.2694,-2.2707,-2.2726,-2.2695,-2.2703,-2.272,-2.2748,-2.2753,-2.277,-2.28,-2.2822,-2.2812,-2.2831,-2.2852,-2.2838,-2.2858,-2.2855,-2.2855,-2.2747,-2.2733,-2.2869,-2.2869,-2.2869,-2.2869,-2.2869,-2.2869,-2.2747,-2.2793,-2.2782,-2.283,-2.2827,-2.2858,-2.2865,-2.2873,-2.2876,-2.2911,-2.2929,-2.2922,-2.2921,-2.2939,-2.2958,-2.2954,-2.2962,-2.2988,-2.2978,-2.2877,-2.2862,-2.2848,-2.2835,-2.299,-2.299,-2.3084,-2.3085,-2.3085]},{"header":{"parameterUnit":"m.s-1","parameterCategory":1,"la1":30.2991,"la2":30.254,"lo1":-89.0895,"lo2":-89.0444,"dy":0.0017,"dx":0.0017,"nx":28,"ny":28,"refTime":"2025-08-05T03:00:00:Z","depth":0,"parameterNumber":3,"parameterNumberName":"V-component_of_WINDS"},"data":[0,0,0,0,0,0,0,0,0,0,0,0,0,0,0,0,0,0,0,0,0,0,0,0,0,0,0,0,0,0,0,0,0,0,0,0,0,0,0,0,0,0,0,0,0,0,0,0,0,0,0,0,0,0,0,0,0,0,-1.5606,-1.5606,0,-1.5614,-1.5614,-1.5614,-1.5644,-1.5645,-1.5645,-1.5646,-1.5652,-1.5652,-1.5651,0,0,0,0,0,0,0,0,0,0,0,0,0,-1.5612,-1.5611,-1.5606,-1.5606,-1.5606,-1.5614,-1.5614,-1.5615,-1.5644,-1.5645,-1.5645,-1.5646,-1.5652,-1.5652,-1.5651,0,0,0,0,0,0,0,0,0,0,0,0,0,-1.5613,-1.5611,-1.5606,-1.5622,-1.5623,-1.5614,-1.5614,-1.5615,-1.5644,-1.5645,-1.5646,-1.5647,-1.5653,-1.5652,-1.5651,-1.5627,0,0,-1.5649,-1.5649,0,0,0,0,0,0,0,0,-1.5613,-1.5613,-1.5619,-1.5621,-1.5622,-1.5629,-1.5619,-1.5619,-1.5643,-1.5636,-1.5646,-1.5647,-1.5644,-1.5644,-1.5643,-1.5627,-1.5627,-1.5649,-1.5649,-1.5648,-1.5648,0,0,0,0,0,0,0,-1.5613,-1.5613,-1.5609,-1.5619,-1.5621,-1.5627,-1.5629,-1.5619,-1.5634,-1.5637,-1.5639,-1.5639,-1.5645,-1.5644,-1.5643,-1.5628,-1.5649,-1.5648,-1.5648,-1.5648,-1.5589,-1.5588,0,0,0,0,0,0,-1.5611,-1.5613,-1.5609,-1.5609,-1.562,-1.5626,-1.5628,-1.5626,-1.5634,-1.5636,-1.5639,-1.5641,-1.5644,-1.5644,-1.5644,-1.5613,-1.5648,-1.5648,-1.5647,-1.559,-1.5589,-1.5588,0,0,0,0,0,0,-1.5611,-1.561,-1.5608,-1.5612,-1.5612,-1.5625,-1.5623,-1.5625,-1.5625,-1.5636,-1.5638,-1.5635,-1.5645,-1.5645,-1.563,-1.5614,-1.5647,-1.5647,-1.5592,-1.559,-1.5588,-1.5554,0,0,0,0,0,0,-1.5611,-1.561,-1.5602,-1.5611,-1.5612,-1.5596,-1.5622,-1.5625,-1.5624,-1.5627,-1.5633,-1.5635,-1.5646,-1.5631,-1.563,-1.5614,-1.5646,-1.5593,-1.5591,-1.5589,-1.5556,-1.5551,-1.5546,0,0,0,0,0,-1.5611,-1.5592,-1.5601,-1.5601,-1.5602,-1.5595,-1.5595,-1.5609,-1.5622,-1.5613,-1.562,-1.5635,-1.5617,-1.5629,-1.5628,-1.5612,-1.5594,-1.5591,-1.5589,-1.5558,-1.5552,-1.5547,0,0,0,0,0,0,-1.558,-1.5594,-1.5604,-1.5588,-1.559,-1.56,-1.5589,-1.5602,-1.56,-1.5602,-1.5619,-1.562,-1.5602,-1.5606,-1.562,-1.5587,-1.5608,-1.5605,-1.5585,-1.5579,-1.5574,-1.5572,-1.5646,0,0,0,0,0,-1.5572,-1.5566,-1.5578,-1.5562,-1.5563,-1.5575,-1.5573,-1.5583,-1.5586,-1.5587,-1.5593,-1.5594,-1.5588,-1.5584,-1.558,-1.5558,-1.5558,-1.5546,-1.5541,-1.5537,-1.5533,-1.5518,-1.5512,-1.5579,-1.5579,-1.5579,0,0,-1.5553,-1.556,-1.5555,-1.5556,-1.5559,-1.5551,-1.5576,-1.5568,-1.5561,-1.5586,-1.5572,-1.5576,-1.5578,-1.5559,-1.5551,-1.5561,-1.5515,-1.5533,-1.553,-1.5528,-1.5515,-1.5509,-1.5503,-1.5577,-1.5578,-1.5578,0,0,-1.5515,-1.5521,-1.5507,-1.551,-1.5514,-1.5523,-1.5519,-1.5527,-1.5531,-1.5518,-1.5535,-1.5527,-1.5518,-1.5518,-1.5517,-1.5478,-1.549,-1.5476,-1.5449,-1.5435,-1.543,-1.5425,-1.5408,-1.5402,-1.5473,-1.5473,-1.5473,0,-1.5492,-1.5482,-1.5498,-1.5488,-1.5486,-1.5509,-1.5493,-1.5495,-1.5497,-1.5495,-1.5507,-1.5494,-1.5498,-1.5477,-1.5468,-1.5467,-1.5462,-1.5474,-1.5429,-1.5425,-1.5421,-1.5405,-1.5398,-1.5471,-1.5471,-1.5471,-1.5472,0,-1.5451,-1.5444,-1.5432,-1.5433,-1.5431,-1.5418,-1.5431,-1.5427,-1.5437,-1.5444,-1.5429,-1.5434,-1.5429,-1.5426,-1.5436,-1.5406,-1.5412,-1.5427,-1.5447,-1.5412,-1.5397,-1.5391,-1.5468,-1.5469,-1.547,-1.547,0,0,-1.5393,-1.5403,-1.5398,-1.5398,-1.5404,-1.5398,-1.5386,-1.5382,-1.5376,-1.5377,-1.5365,-1.5357,-1.537,-1.5368,-1.5379,-1.5366,-1.5331,-1.5382,-1.5382,-1.537,-1.5295,-1.5281,-1.5274,-1.5341,-1.5339,-1.5339,-1.5293,0,-1.5355,-1.5334,-1.5348,-1.5325,-1.5317,-1.5338,-1.5326,-1.5328,-1.5334,-1.5327,-1.5333,-1.5325,-1.5345,-1.5343,-1.5333,-1.5338,-1.5316,-1.5342,-1.5327,-1.5326,-1.5323,-1.5267,-1.5253,-1.5211,-1.5288,-1.5287,-1.5287,0,-1.5307,-1.5305,-1.5281,-1.5287,-1.5284,-1.5274,-1.527,-1.5264,-1.5265,-1.527,-1.5268,-1.5281,-1.5267,-1.5289,-1.5269,-1.5286,-1.5281,-1.5283,-1.5282,-1.5278,-1.5302,-1.5259,-1.5198,-1.519,-1.5278,-1.5279,-1.5279,0,-1.5263,-1.5255,-1.5239,-1.5239,-1.5246,-1.5237,-1.524,-1.5242,-1.5238,-1.5235,-1.5232,-1.5228,-1.5224,-1.522,-1.523,-1.5246,-1.5207,-1.5231,-1.5208,-1.5208,-1.5197,-1.5197,-1.5131,-1.5199,-1.5199,-1.5199,-1.5199,0,-1.5217,-1.5201,-1.5219,-1.5208,-1.519,-1.5206,-1.5187,-1.5191,-1.5193,-1.5183,-1.5201,-1.5191,-1.5207,-1.5197,-1.5206,-1.5186,-1.5185,-1.5187,-1.5188,-1.5183,-1.5182,-1.5178,-1.518,-1.5198,-1.5198,-1.5198,-1.5199,0,-1.5164,-1.5176,-1.5159,-1.5167,-1.5168,-1.5154,-1.516,-1.515,-1.5157,-1.5143,-1.5141,-1.5152,-1.5142,-1.5152,-1.5143,-1.5148,-1.512,-1.5128,-1.512,-1.5121,-1.5096,-1.5097,-1.5022,-1.5011,-1.509,-1.5089,-1.5088,0,-1.5132,-1.512,-1.5126,-1.5121,-1.5122,-1.5114,-1.5109,-1.5125,-1.5119,-1.5119,-1.5108,-1.51,-1.5093,-1.5075,-1.5081,-1.5073,-1.5079,-1.5053,-1.5078,-1.5072,-1.5075,-1.5074,-1.5071,-1.5047,-1.5046,-1.5046,-1.5045,0,-1.5074,-1.508,-1.5074,-1.5069,-1.5064,-1.5061,-1.5059,-1.5054,-1.5069,-1.5062,-1.5052,-1.5047,-1.5037,-1.5027,-1.502,-1.5021,-1.5034,-1.5038,-1.5031,-1.5024,-1.5018,-1.5018,-1.5102,-1.5039,-1.5039,-1.504,-1.504,-1.504,-1.5028,-1.5017,-1.5019,-1.5011,-1.5012,-1.5009,-1.4999,-1.5005,-1.4997,-1.499,-1.5,-1.4986,-1.4986,-1.4979,-1.4978,-1.4966,-1.4977,-1.4969,-1.4966,-1.4963,-1.4958,-1.5023,-1.4966,-1.4966,-1.4966,-1.4966,-1.4967,0,-1.4968,-1.497,-1.4963,-1.4959,-1.4952,-1.4968,-1.4966,-1.4958,-1.4946,-1.4946,-1.4939,-1.4926,-1.4916,-1.4921,-1.4912,-1.4901,-1.4907,-1.4898,-1.4897,-1.4896,-1.4951,-1.4955,-1.4893,-1.4893,-1.4893,-1.4893,-1.4893,-1.4893,-1.4935,-1.4916,-1.4923,-1.4903,-1.4906,-1.4893,-1.489,-1.4887,-1.4886,-1.4871,-1.4863,-1.4867,-1.4867,-1.4858,-1.4849,-1.485,-1.4845,-1.4833,-1.4836,-1.4886,-1.4893,-1.49,-1.4904,-1.4832,-1.4832,-1.4782,-1.4782,-1.4782]}]]